Location: Ch�ze
(42.9000°N, 0.0333°W)
Time: 00:14:49
(UTC+00:00)

Cosmos 1092 Rocket - Pass Details

Date: 24 January 2021
Orbit: 954 x 995 km, 83.0° (Epoch: 24 February)

Event Time Altitude Azimuth Distance (km) Brightness Sun altitude
Rises 18:30:46 0° 185° (S) 3,650 7.2 -16.1°
Reaches altitude 10° 18:33:16 10° 186° (S) 2,701 6.5 -16.6°
Maximum altitude 18:39:27 90° 290° (WNW) 968 3.9 -17.7°
Drops below altitude 10° 18:45:38 10° 8° (N) 2,697 6.1 -18.8°
Sets 18:48:08 0° 8° (N) 3,644 6.8 -19.2°
